| time (UTC) | temp F | wind direction | speed MPH | gust MPH | rain 1hr in | rain 24hr in | rain mn in | humidity % | barometer mb |
| 20260506044036 | 66 | 51 | 0.0 | 1.0 | 0.00 | 0.00 | 0.00 | 62 | 1015.4 |
| 20260506043535 | 66 | 51 | 0.0 | 1.0 | 0.00 | 0.00 | 0.00 | 63 | 1015.4 |
| 20260506043034 | 66 | 51 | 0.0 | 1.0 | 0.00 | 0.00 | 0.00 | 64 | 1015.4 |
| 20260506042533 | 66 | 51 | 0.0 | 0.0 | 0.00 | 0.00 | 0.00 | 63 | 1015.3 |
| 20260506042033 | 66 | 51 | 0.0 | 1.0 | 0.00 | 0.00 | 0.00 | 62 | 1015.3 |
| 20260506041532 | 66 | 51 | 0.0 | 1.0 | 0.00 | 0.00 | 0.00 | 62 | 1015.3 |
| 20260506041031 | 66 | 51 | 0.0 | 1.0 | 0.00 | 0.00 | 0.00 | 62 | 1015.4 |
| 20260506040530 | 66 | 51 | 0.0 | 1.0 | 0.00 | 0.00 | 0.00 | 61 | 1015.4 |
| 20260506040030 | 66 | 51 | 0.0 | 1.0 | 0.00 | 0.00 | 0.00 | 61 | 1015.2 |
| 20260506035530 | 66 | 51 | 0.0 | 1.0 | 0.00 | 0.00 | 0.00 | 62 | 1015.2 |
| 20260506035030 | 66 | 51 | 0.0 | 1.0 | 0.00 | 0.00 | 0.00 | 62 | 1015.5 |
| 20260506034531 | 66 | 51 | 0.0 | 0.0 | 0.00 | 0.00 | 0.00 | 61 | 1015.2 |
| 20260506034029 | 67 | 51 | 0.0 | 0.0 | 0.00 | 0.00 | 0.00 | 61 | 1015.3 |
| 20260506033529 | 67 | 51 | 0.0 | 0.0 | 0.00 | 0.00 | 0.00 | 60 | 1015.2 |
| 20260506033029 | 67 | 51 | 0.0 | 1.0 | 0.00 | 0.00 | 0.00 | 60 | 1015.2 |
| 20260506032528 | 67 | 51 | 0.0 | 1.0 | 0.00 | 0.00 | 0.00 | 59 | 1015.3 |
| 20260506032028 | 68 | 51 | 0.0 | 1.0 | 0.00 | 0.00 | 0.00 | 59 | 1015.3 |
| 20260506031528 | 68 | 51 | 0.0 | 1.0 | 0.00 | 0.00 | 0.00 | 59 | 1015.4 |
| 20260506031028 | 68 | 51 | 0.0 | 1.0 | 0.00 | 0.00 | 0.00 | 59 | 1015.3 |
| 20260506030527 | 68 | 51 | 0.0 | 1.0 | 0.00 | 0.00 | 0.00 | 60 | 1015.4 |
| 20260506030037 | 68 | 51 | 0.0 | 1.0 | 0.00 | 0.00 | 0.00 | 60 | 1015.2 |
| 20260506025527 | 68 | 51 | 0.0 | 1.0 | 0.00 | 0.00 | 0.00 | 61 | 1015.2 |
| 20260506025027 | 68 | 51 | 0.0 | 1.0 | 0.00 | 0.00 | 0.00 | 61 | 1015.2 |
| 20260506024552 | 68 | 51 | 0.0 | 0.0 | 0.00 | 0.00 | 0.00 | 61 | 1015.1 |
| 20260506024028 | 68 | 51 | 0.0 | 1.0 | 0.00 | 0.00 | 0.00 | 61 | 1015.2 |
| 20260506023527 | 69 | 51 | 0.0 | 1.0 | 0.00 | 0.00 | 0.00 | 61 | 1015.4 |
| 20260506023028 | 69 | 51 | 0.0 | 2.0 | 0.00 | 0.00 | 0.00 | 61 | 1015.5 |
| 20260506022526 | 69 | 51 | 0.0 | 2.0 | 0.00 | 0.00 | 0.00 | 61 | 1015.3 |
| 20260506022026 | 69 | 51 | 0.0 | 2.0 | 0.00 | 0.00 | 0.00 | 61 | 1015.2 |
| 20260506021528 | 69 | 51 | 0.0 | 1.0 | 0.00 | 0.00 | 0.00 | 61 | 1015.2 |
| 20260506021028 | 69 | 51 | 0.0 | 1.0 | 0.00 | 0.00 | 0.00 | 62 | 1015.1 |
| 20260506020525 | 69 | 51 | 0.0 | 2.0 | 0.00 | 0.00 | 0.00 | 62 | 1015.1 |
| 20260506020026 | 68 | 51 | 0.0 | 2.0 | 0.00 | 0.00 | 0.00 | 62 | 1015.1 |
| 20260506015526 | 68 | 51 | 0.0 | 1.0 | 0.00 | 0.00 | 0.00 | 62 | 1014.8 |
| 20260506015027 | 68 | 51 | 0.0 | 1.0 | 0.00 | 0.00 | 0.00 | 62 | 1014.8 |
| 20260506014525 | 68 | 51 | 0.0 | 1.0 | 0.00 | 0.00 | 0.00 | 62 | 1014.8 |
| 20260506014025 | 68 | 51 | 0.0 | 1.0 | 0.00 | 0.00 | 0.00 | 63 | 1014.8 |
| 20260506013525 | 68 | 51 | 0.0 | 0.0 | 0.00 | 0.00 | 0.00 | 62 | 1014.8 |
| 20260506013037 | 69 | 51 | 0.0 | 1.0 | 0.00 | 0.00 | 0.00 | 61 | 1014.7 |
| 20260506012525 | 69 | 51 | 0.0 | 1.0 | 0.00 | 0.00 | 0.00 | 61 | 1014.9 |
| 20260506012024 | 69 | 51 | 0.0 | 1.0 | 0.00 | 0.00 | 0.00 | 59 | 1014.7 |
| 20260506011524 | 70 | 51 | 0.0 | 1.0 | 0.00 | 0.00 | 0.00 | 58 | 1014.7 |
| 20260506011025 | 70 | 51 | 0.0 | 0.0 | 0.00 | 0.00 | 0.00 | 58 | 1014.7 |
| 20260506010524 | 70 | 51 | 0.0 | 0.0 | 0.00 | 0.00 | 0.00 | 57 | 1014.8 |
| 20260506010026 | 71 | 51 | 0.0 | 0.0 | 0.00 | 0.00 | 0.00 | 56 | 1014.6 |
| 20260506005524 | 71 | 51 | 0.0 | 0.0 | 0.00 | 0.00 | 0.00 | 56 | 1014.8 |
| 20260506005023 | 72 | 51 | 0.0 | 1.0 | 0.00 | 0.00 | 0.00 | 55 | 1014.9 |
| 20260506004523 | 72 | 51 | 0.0 | 1.0 | 0.00 | 0.00 | 0.00 | 54 | 1014.8 |
| 20260506004023 | 73 | 51 | 0.0 | 1.0 | 0.00 | 0.00 | 0.00 | 53 | 1014.8 |
| 20260506003523 | 73 | 51 | 0.0 | 1.0 | 0.00 | 0.00 | 0.00 | 53 | 1014.8 |
| 20260506003023 | 73 | 51 | 0.0 | 0.0 | 0.00 | 0.00 | 0.00 | 52 | 1014.8 |
| 20260506002522 | 74 | 51 | 0.0 | 1.0 | 0.00 | 0.00 | 0.00 | 51 | 1014.7 |
| 20260506002022 | 74 | 51 | 0.0 | 1.0 | 0.00 | 0.00 | 0.00 | 51 | 1014.7 |
| 20260506001523 | 75 | 51 | 0.0 | 1.0 | 0.00 | 0.00 | 0.00 | 50 | 1014.5 |
| 20260506001023 | 75 | 51 | 0.0 | 1.0 | 0.00 | 0.00 | 0.00 | 50 | 1014.4 |
| 20260506000523 | 76 | 51 | 0.0 | 1.0 | 0.00 | 0.00 | 0.00 | 49 | 1014.4 |
| 20260506000022 | 76 | 51 | 0.0 | 1.0 | 0.00 | 0.00 | 0.00 | 49 | 1014.4 |
| 20260505235522 | 76 | 51 | 0.0 | 1.0 | 0.00 | 0.00 | 0.00 | 48 | 1014.3 |
| 20260505235024 | 77 | 51 | 0.0 | 2.0 | 0.00 | 0.00 | 0.00 | 48 | 1014.2 |
| 20260505234529 | 77 | 51 | 0.0 | 2.0 | 0.00 | 0.00 | 0.00 | 47 | 1014.1 |
| 20260505234021 | 78 | 51 | 0.0 | 2.0 | 0.00 | 0.00 | 0.00 | 47 | 1014.1 |
| 20260505233524 | 78 | 58 | 0.0 | 2.0 | 0.00 | 0.00 | 0.00 | 46 | 1014.2 |
| 20260505233022 | 78 | 39 | 0.0 | 3.0 | 0.00 | 0.00 | 0.00 | 46 | 1014.2 |
| 20260505232521 | 78 | 56 | 0.0 | 4.0 | 0.00 | 0.00 | 0.00 | 46 | 1014.2 |
| 20260505232021 | 79 | 41 | 1.0 | 4.0 | 0.00 | 0.00 | 0.00 | 45 | 1014.2 |
| 20260505231521 | 79 | 50 | 0.0 | 4.0 | 0.00 | 0.00 | 0.00 | 45 | 1014.2 |
| 20260505231024 | 79 | 49 | 1.0 | 4.0 | 0.00 | 0.00 | 0.00 | 44 | 1014.2 |
| 20260505230520 | 79 | 72 | 0.0 | 5.0 | 0.00 | 0.00 | 0.00 | 45 | 1014.2 |
| 20260505230037 | 79 | 53 | 1.0 | 5.0 | 0.00 | 0.00 | 0.00 | 44 | 1014.3 |
| 20260505225520 | 79 | 59 | 1.0 | 3.0 | 0.00 | 0.00 | 0.00 | 44 | 1014.2 |
| 20260505225020 | 80 | 47 | 0.0 | 3.0 | 0.00 | 0.00 | 0.00 | 45 | 1014.0 |
| 20260505224519 | 80 | 37 | 1.0 | 5.0 | 0.00 | 0.00 | 0.00 | 44 | 1013.9 |
| 20260505224019 | 80 | 64 | 1.0 | 5.0 | 0.00 | 0.00 | 0.00 | 44 | 1013.9 |
| 20260505223518 | 80 | 359 | 1.0 | 5.0 | 0.00 | 0.00 | 0.00 | 43 | 1014.2 |
| 20260505223018 | 80 | 53 | 1.0 | 5.0 | 0.00 | 0.00 | 0.00 | 43 | 1014.3 |
| 20260505222518 | 80 | 54 | 3.0 | 5.0 | 0.00 | 0.00 | 0.00 | 43 | 1014.1 |
| 20260505222018 | 81 | 59 | 1.0 | 5.0 | 0.00 | 0.00 | 0.00 | 43 | 1014.2 |
| 20260505221519 | 81 | 327 | 1.0 | 6.0 | 0.00 | 0.00 | 0.00 | 43 | 1014.2 |
| 20260505221017 | 81 | 65 | 1.0 | 5.0 | 0.00 | 0.00 | 0.00 | 44 | 1014.2 |
| 20260505220517 | 81 | 321 | 0.0 | 5.0 | 0.00 | 0.00 | 0.00 | 44 | 1014.3 |
| 20260505220016 | 81 | 18 | 1.0 | 5.0 | 0.00 | 0.00 | 0.00 | 43 | 1014.3 |
| 20260505215515 | 81 | 37 | 2.0 | 5.0 | 0.00 | 0.00 | 0.00 | 43 | 1014.4 |
| 20260505215015 | 81 | 58 | 2.0 | 4.0 | 0.00 | 0.00 | 0.00 | 43 | 1014.4 |
| 20260505214518 | 81 | 56 | 1.0 | 6.0 | 0.00 | 0.00 | 0.00 | 44 | 1014.4 |
| 20260505214014 | 81 | 311 | 2.0 | 6.0 | 0.00 | 0.00 | 0.00 | 42 | 1014.3 |
| 20260505213514 | 82 | 63 | 2.0 | 7.0 | 0.00 | 0.00 | 0.00 | 43 | 1014.5 |
| 20260505213014 | 82 | 92 | 4.0 | 7.0 | 0.00 | 0.00 | 0.00 | 42 | 1014.5 |
| 20260505212517 | 83 | 346 | 0.0 | 5.0 | 0.00 | 0.00 | 0.00 | 44 | 1014.4 |
| 20260505212114 | 83 | 58 | 2.0 | 5.0 | 0.00 | 0.00 | 0.00 | 42 | 1014.4 |
| 20260505211514 | 82 | 269 | 0.0 | 4.0 | 0.00 | 0.00 | 0.00 | 45 | 1014.5 |
| 20260505211013 | 82 | 50 | 1.0 | 5.0 | 0.00 | 0.00 | 0.00 | 45 | 1014.5 |
| 20260505210516 | 81 | 58 | 1.0 | 6.0 | 0.00 | 0.00 | 0.00 | 44 | 1014.5 |
| 20260505210013 | 81 | 77 | 2.0 | 6.0 | 0.00 | 0.00 | 0.00 | 43 | 1014.4 |
| 20260505205513 | 82 | 45 | 2.0 | 6.0 | 0.00 | 0.00 | 0.00 | 44 | 1014.5 |
| 20260505205014 | 82 | 51 | 1.0 | 6.0 | 0.00 | 0.00 | 0.00 | 44 | 1014.6 |
| 20260505204512 | 82 | 49 | 1.0 | 9.0 | 0.00 | 0.00 | 0.00 | 45 | 1014.7 |
| 20260505204011 | 83 | 58 | 2.0 | 9.0 | 0.00 | 0.00 | 0.00 | 43 | 1014.8 |
| 20260505203511 | 83 | 31 | 1.0 | 8.0 | 0.00 | 0.00 | 0.00 | 43 | 1014.9 |
| 20260505203012 | 83 | 41 | 2.0 | 8.0 | 0.00 | 0.00 | 0.00 | 43 | 1014.9 |
| 20260505202511 | 83 | 46 | 1.0 | 6.0 | 0.00 | 0.00 | 0.00 | 43 | 1014.9 |
| 20260505202010 | 83 | 43 | 2.0 | 5.0 | 0.00 | 0.00 | 0.00 | 43 | 1014.8 |
| 20260505201510 | 82 | 63 | 2.0 | 6.0 | 0.00 | 0.00 | 0.00 | 45 | 1014.8 |
| 20260505201009 | 83 | 83 | 2.0 | 5.0 | 0.00 | 0.00 | 0.00 | 43 | 1014.9 |
| 20260505200509 | 83 | 60 | 1.0 | 6.0 | 0.00 | 0.00 | 0.00 | 45 | 1015.0 |
| 20260505200020 | 83 | 328 | 0.0 | 6.0 | 0.00 | 0.00 | 0.00 | 44 | 1015.1 |
| 20260505195507 | 82 | 307 | 2.0 | 6.0 | 0.00 | 0.00 | 0.00 | 45 | 1015.1 |
| 20260505195007 | 82 | 77 | 3.0 | 6.0 | 0.00 | 0.00 | 0.00 | 44 | 1015.2 |
| 20260505194507 | 82 | 27 | 3.0 | 6.0 | 0.00 | 0.00 | 0.00 | 42 | 1015.4 |
| 20260505194007 | 82 | 239 | 0.0 | 5.0 | 0.00 | 0.00 | 0.00 | 46 | 1015.5 |
| 20260505193506 | 82 | 75 | 2.0 | 7.0 | 0.00 | 0.00 | 0.00 | 45 | 1015.5 |
| 20260505193004 | 82 | 22 | 1.0 | 7.0 | 0.00 | 0.00 | 0.00 | 44 | 1015.6 |
| 20260505192503 | 82 | 320 | 0.0 | 5.0 | 0.00 | 0.00 | 0.00 | 44 | 1015.8 |
| 20260505192004 | 82 | 49 | 0.0 | 8.0 | 0.00 | 0.00 | 0.00 | 44 | 1015.8 |
| 20260505191503 | 84 | 49 | 3.0 | 8.0 | 0.00 | 0.00 | 0.00 | 43 | 1016.0 |
| 20260505191003 | 84 | 323 | 1.0 | 4.0 | 0.00 | 0.00 | 0.00 | 43 | 1015.9 |
| 20260505190502 | 84 | 316 | 1.0 | 6.0 | 0.00 | 0.00 | 0.00 | 45 | 1016.0 |
| 20260505190100 | 83 | 315 | 1.0 | 6.0 | 0.00 | 0.00 | 0.00 | 46 | 1016.0 |
| 20260505185603 | 82 | 55 | 1.0 | 6.0 | 0.00 | 0.00 | 0.00 | 44 | 1016.1 |
| 20260505185059 | 82 | 280 | 2.0 | 6.0 | 0.00 | 0.00 | 0.00 | 43 | 1016.2 |
| 20260505184558 | 82 | 45 | 2.0 | 7.0 | 0.00 | 0.00 | 0.00 | 44 | 1016.4 |
| 20260505184059 | 82 | 41 | 2.0 | 7.0 | 0.00 | 0.00 | 0.00 | 43 | 1016.5 |
| 20260505183558 | 82 | 42 | 1.0 | 6.0 | 0.00 | 0.00 | 0.00 | 45 | 1016.5 |
| 20260505183105 | 82 | 41 | 0.0 | 7.0 | 0.00 | 0.00 | 0.00 | 44 | 1016.7 |
| 20260505182558 | 83 | 58 | 2.0 | 7.0 | 0.00 | 0.00 | 0.00 | 42 | 1016.7 |
| 20260505182057 | 82 | 82 | 2.0 | 7.0 | 0.00 | 0.00 | 0.00 | 45 | 1016.7 |
| 20260505181557 | 82 | 86 | 2.0 | 11.0 | 0.00 | 0.00 | 0.00 | 46 | 1016.8 |
| 20260505181058 | 82 | 55 | 5.0 | 11.0 | 0.00 | 0.00 | 0.00 | 44 | 1016.7 |
| 20260505180556 | 83 | 32 | 1.0 | 8.0 | 0.00 | 0.00 | 0.00 | 46 | 1016.9 |
| 20260505180056 | 83 | 293 | 1.0 | 6.0 | 0.00 | 0.00 | 0.00 | 44 | 1017.0 |
| 20260505175556 | 83 | 318 | 1.0 | 6.0 | 0.00 | 0.00 | 0.00 | 46 | 1017.0 |
| 20260505175057 | 83 | 297 | 2.0 | 5.0 | 0.00 | 0.00 | 0.00 | 46 | 1016.9 |
| 20260505174558 | 82 | 333 | 1.0 | 5.0 | 0.00 | 0.00 | 0.00 | 47 | 1017.0 |
| 20260505174054 | 81 | 51 | 0.0 | 7.0 | 0.00 | 0.00 | 0.00 | 46 | 1017.0 |
| 20260505173557 | 81 | 15 | 2.0 | 7.0 | 0.00 | 0.00 | 0.00 | 48 | 1017.1 |
| 20260505173054 | 81 | 90 | 2.0 | 8.0 | 0.00 | 0.00 | 0.00 | 47 | 1017.0 |
| 20260505172554 | 81 | 217 | 3.0 | 8.0 | 0.00 | 0.00 | 0.00 | 47 | 1017.1 |
| 20260505172053 | 82 | 62 | 3.0 | 6.0 | 0.00 | 0.00 | 0.00 | 45 | 1017.3 |
| 20260505171553 | 82 | 63 | 1.0 | 6.0 | 0.00 | 0.00 | 0.00 | 45 | 1017.1 |
| 20260505171055 | 82 | 35 | 1.0 | 4.0 | 0.00 | 0.00 | 0.00 | 45 | 1017.1 |
| 20260505170551 | 82 | 121 | 1.0 | 8.0 | 0.00 | 0.00 | 0.00 | 45 | 1017.2 |
| 20260505170052 | 81 | 54 | 1.0 | 8.0 | 0.00 | 0.00 | 0.00 | 43 | 1017.3 |
| 20260505165551 | 82 | 34 | 2.0 | 6.0 | 0.00 | 0.00 | 0.00 | 46 | 1017.5 |
| 20260505165049 | 81 | 30 | 1.0 | 4.0 | 0.00 | 0.00 | 0.00 | 46 | 1017.6 |
| 20260505164559 | 80 | 34 | 2.0 | 5.0 | 0.00 | 0.00 | 0.00 | 47 | 1017.6 |
| 20260505164049 | 80 | 33 | 2.0 | 5.0 | 0.00 | 0.00 | 0.00 | 47 | 1017.5 |
| 20260505163549 | 80 | 48 | 1.0 | 5.0 | 0.00 | 0.00 | 0.00 | 48 | 1017.7 |
| 20260505163055 | 80 | 71 | 1.0 | 5.0 | 0.00 | 0.00 | 0.00 | 49 | 1017.7 |
| 20260505162552 | 80 | 55 | 2.0 | 5.0 | 0.00 | 0.00 | 0.00 | 46 | 1017.7 |
| 20260505162048 | 81 | 74 | 2.0 | 4.0 | 0.00 | 0.00 | 0.00 | 45 | 1017.6 |
| 20260505161547 | 81 | 20 | 1.0 | 3.0 | 0.00 | 0.00 | 0.00 | 48 | 1017.6 |
| 20260505161046 | 80 | 105 | 1.0 | 4.0 | 0.00 | 0.00 | 0.00 | 49 | 1017.5 |
| 20260505160546 | 80 | 77 | 1.0 | 3.0 | 0.00 | 0.00 | 0.00 | 47 | 1017.6 |
| 20260505153059 | 79 | 46 | 0.0 | 4.0 | 0.00 | 0.00 | 0.00 | 48 | 1017.9 |
| 20260505152542 | 79 | 276 | 1.0 | 3.0 | 0.00 | 0.00 | 0.00 | 49 | 1018.0 |
| 20260505152041 | 79 | 172 | 0.0 | 3.0 | 0.00 | 0.00 | 0.00 | 48 | 1017.8 |
| 20260505151550 | 79 | 82 | 0.0 | 3.0 | 0.00 | 0.00 | 0.00 | 49 | 1018.0 |
| 20260505151039 | 78 | 299 | 0.0 | 2.0 | 0.00 | 0.00 | 0.00 | 53 | 1017.9 |
| 20260505150540 | 78 | 277 | 0.0 | 2.0 | 0.00 | 0.00 | 0.00 | 53 | 1018.0 |
| 20260505140527 | 72 | 125 | 0.0 | 4.0 | 0.00 | 0.00 | 0.00 | 61 | 1017.7 |
| 20260505125011 | 65 | 62 | 0.0 | 2.0 | 0.00 | 0.00 | 0.00 | 77 | 1017.4 |
| 20260505124510 | 64 | 41 | 0.0 | 2.0 | 0.00 | 0.00 | 0.00 | 78 | 1017.6 |
| 20260505124012 | 63 | 53 | 0.0 | 2.0 | 0.00 | 0.00 | 0.00 | 80 | 1017.6 |
| 20260505123507 | 62 | 291 | 0.0 | 1.0 | 0.00 | 0.00 | 0.00 | 87 | 1017.4 |
| 20260505123005 | 60 | 292 | 0.0 | 1.0 | 0.00 | 0.00 | 0.00 | 89 | 1017.4 |
| 20260505122504 | 59 | 291 | 0.0 | 1.0 | 0.00 | 0.00 | 0.00 | 91 | 1017.4 |
| 20260505122003 | 58 | 291 | 0.0 | 1.0 | 0.00 | 0.00 | 0.00 | 91 | 1017.4 |
| 20260505121503 | 57 | 293 | 0.0 | 1.0 | 0.00 | 0.00 | 0.00 | 91 | 1017.3 |
| 20260505121002 | 57 | 293 | 0.0 | 1.0 | 0.00 | 0.00 | 0.00 | 92 | 1017.2 |
| 20260505120500 | 56 | 293 | 0.0 | 1.0 | 0.00 | 0.00 | 0.00 | 92 | 1017.1 |
| 20260505120001 | 56 | 293 | 0.0 | 1.0 | 0.00 | 0.00 | 0.00 | 92 | 1017.1 |
| 20260505115500 | 56 | 293 | 0.0 | 1.0 | 0.00 | 0.00 | 0.00 | 92 | 1017.1 |
| 20260505115001 | 55 | 293 | 0.0 | 1.0 | 0.00 | 0.00 | 0.00 | 92 | 1017.1 |
| 20260505114602 | 55 | 288 | 0.0 | 0.0 | 0.00 | 0.00 | 0.00 | 91 | 1017.0 |
| 20260505114105 | 55 | 288 | 0.0 | 1.0 | 0.00 | 0.00 | 0.00 | 91 | 1017.1 |
| 20260505113603 | 55 | 288 | 0.0 | 1.0 | 0.00 | 0.00 | 0.00 | 91 | 1017.0 |
| 20260505113102 | 55 | 53 | 0.0 | 0.0 | 0.00 | 0.00 | 0.00 | 91 | 1017.0 |
| 20260505112558 | 55 | 53 | 0.0 | 0.0 | 0.00 | 0.00 | 0.00 | 90 | 1016.9 |
| 20260505112058 | 55 | 53 | 0.0 | 1.0 | 0.00 | 0.00 | 0.00 | 90 | 1016.9 |
| 20260505111600 | 55 | 53 | 0.0 | 1.0 | 0.00 | 0.00 | 0.00 | 89 | 1016.9 |
| 20260505111100 | 55 | 53 | 0.0 | 0.0 | 0.00 | 0.00 | 0.00 | 89 | 1016.8 |
| 20260505110557 | 55 | 53 | 0.0 | 0.0 | 0.00 | 0.00 | 0.00 | 89 | 1016.8 |
| 20260505110105 | 55 | 53 | 0.0 | 0.0 | 0.00 | 0.00 | 0.00 | 88 | 1016.7 |
| 20260505102058 | 56 | 48 | 0.0 | 1.0 | 0.00 | 0.00 | 0.00 | 86 | 1016.5 |
| 20260505101602 | 56 | 48 | 0.0 | 2.0 | 0.00 | 0.00 | 0.00 | 86 | 1016.4 |
| 20260505101055 | 57 | 48 | 0.0 | 2.0 | 0.00 | 0.00 | 0.00 | 86 | 1016.4 |
| 20260505100555 | 57 | 46 | 0.0 | 2.0 | 0.00 | 0.00 | 0.00 | 86 | 1016.4 |
| 20260505100056 | 57 | 45 | 0.0 | 2.0 | 0.00 | 0.00 | 0.00 | 86 | 1016.4 |
| 20260505095557 | 57 | 54 | 0.0 | 3.0 | 0.00 | 0.00 | 0.00 | 86 | 1016.3 |
| 20260505095054 | 57 | 56 | 0.0 | 3.0 | 0.00 | 0.00 | 0.00 | 86 | 1016.4 |
| 20260505094558 | 56 | 41 | 1.0 | 3.0 | 0.00 | 0.00 | 0.00 | 86 | 1016.5 |
| 20260505094053 | 56 | 46 | 1.0 | 2.0 | 0.00 | 0.00 | 0.00 | 86 | 1016.7 |
| 20260505093554 | 56 | 59 | 0.0 | 2.0 | 0.00 | 0.00 | 0.00 | 86 | 1016.8 |
| 20260505093053 | 56 | 59 | 0.0 | 1.0 | 0.00 | 0.00 | 0.00 | 85 | 1016.8 |
| 20260505092552 | 56 | 59 | 0.0 | 1.0 | 0.00 | 0.00 | 0.00 | 85 | 1016.9 |
| 20260505092052 | 56 | 59 | 0.0 | 1.0 | 0.00 | 0.00 | 0.00 | 85 | 1016.8 |
| 20260505091558 | 56 | 59 | 0.0 | 1.0 | 0.00 | 0.00 | 0.00 | 84 | 1016.9 |
| 20260505091051 | 56 | 59 | 0.0 | 1.0 | 0.00 | 0.00 | 0.00 | 84 | 1016.8 |
| 20260505090551 | 56 | 59 | 0.0 | 1.0 | 0.00 | 0.00 | 0.00 | 84 | 1016.9 |
| 20260505090058 | 57 | 66 | 0.0 | 2.0 | 0.00 | 0.00 | 0.00 | 83 | 1016.9 |
| 20260505085550 | 57 | 75 | 0.0 | 2.0 | 0.00 | 0.00 | 0.00 | 83 | 1016.9 |
| 20260505085051 | 57 | 53 | 0.0 | 1.0 | 0.00 | 0.00 | 0.00 | 83 | 1016.8 |
| 20260505084550 | 57 | 53 | 0.0 | 1.0 | 0.00 | 0.00 | 0.00 | 82 | 1016.9 |
| 20260505084048 | 57 | 53 | 0.0 | 1.0 | 0.00 | 0.00 | 0.00 | 82 | 1017.0 |
| 20260505083547 | 57 | 53 | 0.0 | 1.0 | 0.00 | 0.00 | 0.00 | 81 | 1016.9 |
| 20260505083051 | 57 | 53 | 0.0 | 1.0 | 0.00 | 0.00 | 0.00 | 81 | 1016.8 |
| 20260505082547 | 57 | 54 | 0.0 | 1.0 | 0.00 | 0.00 | 0.00 | 81 | 1016.8 |
| 20260505082049 | 57 | 54 | 0.0 | 1.0 | 0.00 | 0.00 | 0.00 | 80 | 1016.8 |
| 20260505081558 | 58 | 54 | 0.0 | 2.0 | 0.00 | 0.00 | 0.00 | 80 | 1016.9 |
| 20260505081047 | 58 | 55 | 0.0 | 2.0 | 0.00 | 0.00 | 0.00 | 80 | 1016.8 |
| 20260505080546 | 58 | 49 | 0.0 | 2.0 | 0.00 | 0.00 | 0.00 | 80 | 1016.8 |
| 20260505080049 | 58 | 52 | 0.0 | 2.0 | 0.00 | 0.00 | 0.00 | 80 | 1016.8 |
| 20260505075549 | 58 | 55 | 0.0 | 2.0 | 0.00 | 0.00 | 0.00 | 79 | 1016.7 |
| 20260505075045 | 58 | 55 | 0.0 | 2.0 | 0.00 | 0.00 | 0.00 | 78 | 1016.7 |
| 20260505074604 | 58 | 54 | 1.0 | 2.0 | 0.00 | 0.00 | 0.00 | 78 | 1016.8 |
| 20260505074046 | 58 | 54 | 0.0 | 2.0 | 0.00 | 0.00 | 0.00 | 78 | 1016.6 |
| 20260505073545 | 59 | 54 | 0.0 | 1.0 | 0.00 | 0.00 | 0.00 | 77 | 1016.5 |
| 20260505073051 | 59 | 54 | 0.0 | 2.0 | 0.00 | 0.00 | 0.00 | 77 | 1016.6 |
| 20260505072544 | 59 | 49 | 0.0 | 3.0 | 0.00 | 0.00 | 0.00 | 76 | 1016.5 |
| 20260505072044 | 59 | 46 | 1.0 | 3.0 | 0.00 | 0.00 | 0.00 | 76 | 1016.4 |
| 20260505071544 | 59 | 41 | 0.0 | 3.0 | 0.00 | 0.00 | 0.00 | 76 | 1016.4 |
| 20260505071043 | 59 | 46 | 0.0 | 2.0 | 0.00 | 0.00 | 0.00 | 75 | 1016.5 |
| 20260505070543 | 59 | 37 | 0.0 | 2.0 | 0.00 | 0.00 | 0.00 | 75 | 1016.5 |
| 20260505070045 | 59 | 57 | 0.0 | 3.0 | 0.00 | 0.00 | 0.00 | 74 | 1016.5 |
| 20260505065542 | 59 | 41 | 0.0 | 3.0 | 0.00 | 0.00 | 0.00 | 74 | 1016.4 |
| 20260505065040 | 60 | 46 | 0.0 | 3.0 | 0.00 | 0.00 | 0.00 | 73 | 1016.5 |
| 20260505064540 | 60 | 72 | 0.0 | 7.0 | 0.00 | 0.00 | 0.00 | 73 | 1016.5 |
| 20260505064040 | 60 | 32 | 1.0 | 3.0 | 0.00 | 0.00 | 0.00 | 73 | 1016.6 |
| 20260505063539 | 60 | 49 | 1.0 | 4.0 | 0.00 | 0.00 | 0.00 | 73 | 1016.6 |
| 20260505063042 | 60 | 25 | 1.0 | 4.0 | 0.00 | 0.00 | 0.00 | 72 | 1016.6 |
| 20260505062537 | 60 | 39 | 1.0 | 4.0 | 0.00 | 0.00 | 0.00 | 72 | 1016.7 |
| 20260505062035 | 60 | 35 | 0.0 | 4.0 | 0.00 | 0.00 | 0.00 | 72 | 1016.8 |
| 20260505061549 | 59 | 80 | 0.0 | 4.0 | 0.00 | 0.00 | 0.00 | 72 | 1016.7 |
| 20260505061032 | 59 | 51 | 2.0 | 4.0 | 0.00 | 0.00 | 0.00 | 72 | 1016.8 |
| 20260505060534 | 58 | 49 | 0.0 | 4.0 | 0.00 | 0.00 | 0.00 | 73 | 1016.8 |
| 20260505060032 | 57 | 37 | 0.0 | 4.0 | 0.00 | 0.00 | 0.00 | 73 | 1016.8 |
| 20260505055530 | 56 | 46 | 1.0 | 4.0 | 0.00 | 0.00 | 0.00 | 74 | 1016.9 |
| 20260505055031 | 55 | 30 | 0.0 | 1.0 | 0.00 | 0.00 | 0.00 | 75 | 1016.9 |
| 20260505054531 | 55 | 27 | 0.0 | 2.0 | 0.00 | 0.00 | 0.00 | 75 | 1016.9 |
| 20260505054027 | 54 | 81 | 0.0 | 2.0 | 0.00 | 0.00 | 0.00 | 75 | 1017.0 |
| 20260505053527 | 55 | 329 | 0.0 | 1.0 | 0.00 | 0.00 | 0.00 | 74 | 1017.1 |
| 20260505053026 | 55 | 329 | 0.0 | 1.0 | 0.00 | 0.00 | 0.00 | 75 | 1017.0 |
| 20260505052525 | 55 | 347 | 0.0 | 0.0 | 0.00 | 0.00 | 0.00 | 76 | 1016.7 |
| 20260505052024 | 55 | 347 | 0.0 | 0.0 | 0.00 | 0.00 | 0.00 | 76 | 1016.7 |
| 20260505051528 | 55 | 347 | 0.0 | 0.0 | 0.00 | 0.00 | 0.00 | 75 | 1016.7 |
| 20260505051027 | 55 | 347 | 0.0 | 0.0 | 0.00 | 0.00 | 0.00 | 72 | 1016.8 |
| 20260505050522 | 55 | 347 | 0.0 | 0.0 | 0.00 | 0.00 | 0.00 | 72 | 1016.8 |